Time,TemperatureF,DewpointF,PressureIn,WindDirection,WindDirectionDegrees,WindSpeedMPH,WindSpeedGustMPH,Humidity,HourlyPrecipIn,Conditions,Clouds,dailyrainin,SoftwareType,DateUTC
2015-04-24 00:04:00,54.7,39.6,30.04,South,180,0.0,4.0,57,0.00,,,0.00,WUHU21636XXSP,2015-04-24 04:04:00,
2015-04-24 00:09:00,54.7,39.6,30.04,South,180,4.0,4.0,57,0.00,,,0.00,WUHU21636XXSP,2015-04-24 04:09:00,
2015-04-24 00:14:00,54.7,39.6,30.04,South,180,0.0,4.0,57,0.00,,,0.00,WUHU21636XXSP,2015-04-24 04:14:00,
2015-04-24 00:19:00,54.7,39.6,30.04,South,180,0.0,4.0,58,0.00,,,0.00,WUHU21636XXSP,2015-04-24 04:19:00,
2015-04-24 00:24:00,54.5,39.9,30.04,South,180,5.0,5.0,58,0.00,,,0.00,WUHU21636XXSP,2015-04-24 04:24:00,
2015-04-24 00:29:00,54.5,39.9,30.04,South,180,4.0,5.0,58,0.00,,,0.00,WUHU21636XXSP,2015-04-24 04:29:00,
2015-04-24 00:34:00,54.5,39.9,30.04,South,180,0.0,4.0,57,0.00,,,0.00,WUHU21636XXSP,2015-04-24 04:34:00,
2015-04-24 00:39:00,54.5,39.4,30.04,SSE,157,2.0,8.0,58,0.00,,,0.00,WUHU21636XXSP,2015-04-24 04:39:00,
2015-04-24 00:44:00,54.3,39.7,30.04,SSE,157,1.0,8.0,58,0.00,,,0.00,WUHU21636XXSP,2015-04-24 04:44:00,
2015-04-24 00:49:00,54.3,39.7,30.04,SSE,157,0.0,1.0,58,0.00,,,0.00,WUHU21636XXSP,2015-04-24 04:49:00,
2015-04-24 00:54:00,54.1,39.0,30.03,SSE,157,2.0,2.0,58,0.00,,,0.00,WUHU21636XXSP,2015-04-24 04:54:00,
2015-04-24 00:59:00,54.1,39.0,30.03,SSE,157,5.0,6.0,57,0.00,,,0.00,WUHU21636XXSP,2015-04-24 04:59:00,
2015-04-24 01:04:00,54.1,39.6,30.04,SSE,157,0.0,6.0,58,0.00,,,0.00,WUHU21636XXSP,2015-04-24 05:04:00,
2015-04-24 01:09:00,54.1,39.6,30.04,SSE,157,0.0,5.0,58,0.00,,,0.00,WUHU21636XXSP,2015-04-24 05:09:00,
2015-04-24 01:14:00,54.1,39.6,30.04,SSE,157,0.0,0.0,58,0.00,,,0.00,WUHU21636XXSP,2015-04-24 05:14:00,
2015-04-24 01:18:00,54.1,39.6,30.04,SSE,157,0.0,0.0,58,0.00,,,0.00,WUHU21636XXSP,2015-04-24 05:18:00,
2015-04-24 01:24:00,54.1,39.6,30.04,SSE,157,0.0,0.0,58,0.00,,,0.00,WUHU21636XXSP,2015-04-24 05:24:00,
2015-04-24 01:28:00,54.1,39.6,30.04,SSE,157,0.0,0.0,58,0.00,,,0.00,WUHU21636XXSP,2015-04-24 05:28:00,
2015-04-24 01:33:00,54.1,39.6,30.04,SSE,157,0.0,0.0,58,0.00,,,0.00,WUHU21636XXSP,2015-04-24 05:33:00,
2015-04-24 01:38:00,54.1,39.6,30.04,SSE,157,0.0,0.0,58,0.00,,,0.00,WUHU21636XXSP,2015-04-24 05:38:00,
2015-04-24 01:43:00,54.1,39.6,30.04,SSE,157,0.0,0.0,58,0.00,,,0.00,WUHU21636XXSP,2015-04-24 05:43:00,
2015-04-24 01:48:00,54.1,39.6,30.04,SSE,157,0.0,0.0,58,0.00,,,0.00,WUHU21636XXSP,2015-04-24 05:48:00,
2015-04-24 01:53:00,54.1,39.6,30.04,SSE,157,0.0,0.0,58,0.00,,,0.00,WUHU21636XXSP,2015-04-24 05:53:00,
2015-04-24 01:58:00,54.1,39.6,30.04,SSE,157,0.0,0.0,58,0.00,,,0.00,WUHU21636XXSP,2015-04-24 05:58:00,
2015-04-24 02:03:00,54.1,39.6,30.04,SSE,157,0.0,0.0,58,0.00,,,0.00,WUHU21636XXSP,2015-04-24 06:03:00,
2015-04-24 02:08:00,54.7,39.6,30.04,SSE,157,2.0,2.0,57,0.00,,,0.00,WUHU21636XXSP,2015-04-24 06:08:00,
2015-04-24 02:13:00,54.7,39.6,30.04,SSE,157,1.0,2.0,57,0.00,,,0.00,WUHU21636XXSP,2015-04-24 06:13:00,
2015-04-24 02:18:00,54.7,39.6,30.04,SSE,157,0.0,1.0,57,0.00,,,0.00,WUHU21636XXSP,2015-04-24 06:18:00,
2015-04-24 02:23:00,54.7,39.6,30.04,SSE,157,0.0,1.0,57,0.00,,,0.00,WUHU21636XXSP,2015-04-24 06:23:00,
2015-04-24 02:28:00,54.7,39.6,30.04,SSE,157,0.0,0.0,57,0.00,,,0.00,WUHU21636XXSP,2015-04-24 06:28:00,
2015-04-24 02:33:00,54.7,39.6,30.04,SSE,157,0.0,0.0,57,0.00,,,0.00,WUHU21636XXSP,2015-04-24 06:33:00,
2015-04-24 02:38:00,54.7,39.6,30.03,SSE,157,0.0,0.0,57,0.00,,,0.00,WUHU21636XXSP,2015-04-24 06:38:00,
2015-04-24 02:43:00,54.5,39.0,30.03,SSE,157,2.0,2.0,56,0.00,,,0.00,WUHU21636XXSP,2015-04-24 06:43:00,
2015-04-24 02:48:00,54.7,39.6,30.03,SSE,157,3.0,3.0,56,0.00,,,0.00,WUHU21636XXSP,2015-04-24 06:48:00,
2015-04-24 02:53:00,54.7,39.6,30.03,SSE,157,0.0,3.0,57,0.00,,,0.00,WUHU21636XXSP,2015-04-24 06:53:00,
2015-04-24 02:58:00,54.5,39.4,30.03,SSE,157,0.0,0.0,57,0.00,,,0.00,WUHU21636XXSP,2015-04-24 06:58:00,
2015-04-24 03:03:00,54.5,39.4,30.02,SSE,157,1.0,2.0,56,0.00,,,0.00,WUHU21636XXSP,2015-04-24 07:03:00,
2015-04-24 03:08:00,54.5,39.4,30.02,SSE,157,0.0,2.0,56,0.00,,,0.00,WUHU21636XXSP,2015-04-24 07:08:00,
2015-04-24 03:13:00,54.5,39.4,30.02,SSE,157,0.0,1.0,56,0.00,,,0.00,WUHU21636XXSP,2015-04-24 07:13:00,
2015-04-24 03:18:00,54.5,39.4,30.02,SSE,157,0.0,0.0,56,0.00,,,0.00,WUHU21636XXSP,2015-04-24 07:18:00,
2015-04-24 03:23:00,54.5,39.4,30.02,SSE,157,0.0,0.0,56,0.00,,,0.00,WUHU21636XXSP,2015-04-24 07:23:00,
2015-04-24 03:28:00,54.7,39.2,30.02,SSE,157,0.0,0.0,56,0.00,,,0.00,WUHU21636XXSP,2015-04-24 07:28:00,
2015-04-24 03:33:00,54.7,39.2,30.02,SSE,157,0.0,0.0,56,0.00,,,0.00,WUHU21636XXSP,2015-04-24 07:33:00,
2015-04-24 03:38:00,54.7,39.2,30.02,SSE,157,0.0,0.0,56,0.00,,,0.00,WUHU21636XXSP,2015-04-24 07:38:00,
2015-04-24 03:43:00,54.7,39.2,30.02,SSE,157,0.0,0.0,56,0.00,,,0.00,WUHU21636XXSP,2015-04-24 07:43:00,
2015-04-24 03:48:00,54.7,39.2,30.02,SSE,157,0.0,0.0,56,0.00,,,0.00,WUHU21636XXSP,2015-04-24 07:48:00,
2015-04-24 03:53:00,54.7,39.2,30.02,SSE,157,0.0,0.0,56,0.00,,,0.00,WUHU21636XXSP,2015-04-24 07:53:00,
2015-04-24 03:58:00,54.7,39.2,30.02,SSE,157,0.0,0.0,56,0.00,,,0.00,WUHU21636XXSP,2015-04-24 07:58:00,
2015-04-24 04:03:00,54.7,39.2,30.02,SSE,157,0.0,0.0,56,0.00,,,0.00,WUHU21636XXSP,2015-04-24 08:03:00,
2015-04-24 04:08:00,54.7,39.2,30.02,SSE,157,0.0,0.0,56,0.00,,,0.00,WUHU21636XXSP,2015-04-24 08:08:00,
2015-04-24 04:13:00,54.7,39.2,30.02,SSE,157,0.0,0.0,56,0.00,,,0.00,WUHU21636XXSP,2015-04-24 08:13:00,
2015-04-24 04:18:00,54.7,39.2,30.02,SSE,157,0.0,0.0,56,0.00,,,0.00,WUHU21636XXSP,2015-04-24 08:18:00,
2015-04-24 04:23:00,54.7,39.2,30.02,SSE,157,0.0,0.0,56,0.00,,,0.00,WUHU21636XXSP,2015-04-24 08:23:00,
2015-04-24 04:28:00,54.7,39.2,30.02,SSE,157,0.0,0.0,56,0.00,,,0.00,WUHU21636XXSP,2015-04-24 08:28:00,
2015-04-24 04:33:00,54.7,39.2,30.02,SSE,157,0.0,0.0,56,0.00,,,0.00,WUHU21636XXSP,2015-04-24 08:33:00,
2015-04-24 04:38:00,54.7,39.2,30.02,SSE,157,0.0,0.0,56,0.00,,,0.00,WUHU21636XXSP,2015-04-24 08:38:00,
2015-04-24 04:43:00,54.7,39.2,30.02,SSE,157,0.0,0.0,56,0.00,,,0.00,WUHU21636XXSP,2015-04-24 08:43:00,
2015-04-24 04:48:00,54.7,39.2,30.02,SSE,157,0.0,0.0,56,0.00,,,0.00,WUHU21636XXSP,2015-04-24 08:48:00,
2015-04-24 04:53:00,54.7,39.2,30.02,SSE,157,0.0,0.0,56,0.00,,,0.00,WUHU21636XXSP,2015-04-24 08:53:00,
2015-04-24 04:58:00,54.7,39.2,30.02,SSE,157,0.0,0.0,56,0.00,,,0.00,WUHU21636XXSP,2015-04-24 08:58:00,
2015-04-24 05:03:00,54.7,39.2,30.02,SSE,157,0.0,0.0,56,0.00,,,0.00,WUHU21636XXSP,2015-04-24 09:03:00,
2015-04-24 05:08:00,54.7,39.2,30.02,SSE,157,0.0,0.0,56,0.00,,,0.00,WUHU21636XXSP,2015-04-24 09:08:00,
2015-04-24 05:13:00,54.7,39.2,30.02,SSE,157,0.0,0.0,56,0.00,,,0.00,WUHU21636XXSP,2015-04-24 09:13:00,
2015-04-24 05:18:00,54.7,39.2,30.02,SSE,157,0.0,0.0,56,0.00,,,0.00,WUHU21636XXSP,2015-04-24 09:18:00,
2015-04-24 05:23:00,54.7,39.2,30.02,SSE,157,0.0,0.0,56,0.00,,,0.00,WUHU21636XXSP,2015-04-24 09:23:00,
2015-04-24 05:28:00,54.7,39.2,30.02,SSE,157,0.0,0.0,56,0.00,,,0.00,WUHU21636XXSP,2015-04-24 09:28:00,
2015-04-24 05:33:00,54.7,39.2,30.02,SSE,157,0.0,0.0,56,0.00,,,0.00,WUHU21636XXSP,2015-04-24 09:33:00,
2015-04-24 05:38:00,54.7,39.2,30.02,SSE,157,0.0,0.0,56,0.00,,,0.00,WUHU21636XXSP,2015-04-24 09:38:00,
2015-04-24 05:43:00,54.7,39.2,30.02,SSE,157,0.0,0.0,56,0.00,,,0.00,WUHU21636XXSP,2015-04-24 09:43:00,
2015-04-24 05:53:00,54.7,39.2,30.02,SSE,157,0.0,0.0,56,0.00,,,0.00,WUHU21636XXSP,2015-04-24 09:53:00,
2015-04-24 06:03:00,54.7,39.2,30.02,SSE,157,0.0,0.0,56,0.00,,,0.00,WUHU21636XXSP,2015-04-24 10:03:00,
2015-04-24 06:08:00,54.7,39.2,30.02,SSE,157,0.0,0.0,56,0.00,,,0.00,WUHU21636XXSP,2015-04-24 10:08:00,
2015-04-24 06:13:00,54.7,39.2,30.02,SSE,157,0.0,0.0,56,0.00,,,0.00,WUHU21636XXSP,2015-04-24 10:13:00,
2015-04-24 06:18:00,54.7,39.2,30.02,SSE,157,0.0,0.0,56,0.00,,,0.00,WUHU21636XXSP,2015-04-24 10:18:00,
2015-04-24 06:23:00,54.7,39.2,30.02,SSE,157,0.0,0.0,56,0.00,,,0.00,WUHU21636XXSP,2015-04-24 10:23:00,
2015-04-24 06:28:00,54.7,39.2,30.02,SSE,157,0.0,0.0,56,0.00,,,0.00,WUHU21636XXSP,2015-04-24 10:28:00,
2015-04-24 06:33:00,54.7,39.2,30.02,SSE,157,0.0,0.0,56,0.00,,,0.00,WUHU21636XXSP,2015-04-24 10:33:00,
2015-04-24 06:38:00,54.7,39.2,30.02,SSE,157,0.0,0.0,56,0.00,,,0.00,WUHU21636XXSP,2015-04-24 10:38:00,
2015-04-24 06:43:00,54.7,39.2,30.02,SSE,157,0.0,0.0,56,0.00,,,0.00,WUHU21636XXSP,2015-04-24 10:43:00,
2015-04-24 06:48:00,54.7,39.2,30.02,SSE,157,0.0,0.0,56,0.00,,,0.00,WUHU21636XXSP,2015-04-24 10:48:00,
2015-04-24 06:53:00,54.7,39.2,30.02,SSE,157,0.0,0.0,56,0.00,,,0.00,WUHU21636XXSP,2015-04-24 10:53:00,
2015-04-24 07:03:00,54.7,39.2,30.02,SSE,157,0.0,0.0,56,0.00,,,0.00,WUHU21636XXSP,2015-04-24 11:03:00,
2015-04-24 07:13:00,54.7,39.2,30.02,SSE,157,0.0,0.0,56,0.00,,,0.00,WUHU21636XXSP,2015-04-24 11:13:00,
2015-04-24 07:18:00,54.7,39.2,30.02,SSE,157,0.0,0.0,56,0.00,,,0.00,WUHU21636XXSP,2015-04-24 11:18:00,
2015-04-24 07:23:00,54.7,39.2,30.02,SSE,157,0.0,0.0,56,0.00,,,0.00,WUHU21636XXSP,2015-04-24 11:23:00,
2015-04-24 07:28:00,54.7,39.2,30.02,SSE,157,0.0,0.0,56,0.00,,,0.00,WUHU21636XXSP,2015-04-24 11:28:00,
2015-04-24 07:33:00,54.7,39.2,30.02,SSE,157,0.0,0.0,56,0.00,,,0.00,WUHU21636XXSP,2015-04-24 11:33:00,
2015-04-24 07:38:00,52.0,44.2,29.98,SE,135,4.0,7.0,75,0.02,,,0.02,WUHU21636XXSP,2015-04-24 11:38:00,
2015-04-24 07:43:00,51.4,44.4,29.98,ESE,119,4.0,9.0,77,0.04,,,0.04,WUHU21636XXSP,2015-04-24 11:43:00,
2015-04-24 07:48:00,50.9,44.6,29.98,ESE,112,0.0,9.0,79,0.08,,,0.08,WUHU21636XXSP,2015-04-24 11:48:00,
2015-04-24 07:53:00,50.7,44.4,29.97,ESE,112,0.0,2.0,79,0.12,,,0.12,WUHU21636XXSP,2015-04-24 11:53:00,
2015-04-24 07:58:00,50.2,45.1,29.98,SSE,157,2.0,2.0,83,0.14,,,0.14,WUHU21636XXSP,2015-04-24 11:58:00,
2015-04-24 08:03:00,50.2,45.1,29.97,SSE,157,0.0,2.0,83,0.45,,,0.44,WUHU21636XXSP,2015-04-24 12:03:00,
2015-04-24 08:08:00,50.2,45.1,29.98,SSE,157,4.0,4.0,83,0.47,,,0.47,WUHU21636XXSP,2015-04-24 12:08:00,
2015-04-24 08:13:00,50.4,45.5,29.97,SSE,149,5.0,11.0,84,0.47,,,0.47,WUHU21636XXSP,2015-04-24 12:13:00,
2015-04-24 08:18:00,50.5,45.7,29.98,SE,135,2.0,12.0,84,0.47,,,0.47,WUHU21636XXSP,2015-04-24 12:18:00,
2015-04-24 08:23:00,50.7,45.9,29.98,SSE,157,0.0,12.0,84,0.47,,,0.47,WUHU21636XXSP,2015-04-24 12:23:00,
2015-04-24 08:28:00,50.9,46.0,29.98,SSE,157,2.0,2.0,84,0.47,,,0.47,WUHU21636XXSP,2015-04-24 12:28:00,
2015-04-24 08:33:00,51.4,46.6,29.98,SSE,157,0.0,2.0,84,0.47,,,0.47,WUHU21636XXSP,2015-04-24 12:33:00,
2015-04-24 08:38:00,51.6,46.8,29.97,SSE,157,0.0,2.0,84,0.47,,,0.47,WUHU21636XXSP,2015-04-24 12:38:00,
2015-04-24 08:43:00,51.6,46.8,29.97,SSE,157,0.0,0.0,83,0.47,,,0.47,WUHU21636XXSP,2015-04-24 12:43:00,
2015-04-24 08:48:00,52.0,46.9,29.98,SSE,157,4.0,9.0,83,0.47,,,0.47,WUHU21636XXSP,2015-04-24 12:48:00,
2015-04-24 08:53:00,52.2,47.1,29.99,SSE,157,2.0,9.0,83,0.47,,,0.47,WUHU21636XXSP,2015-04-24 12:53:00,
2015-04-24 08:58:00,52.3,47.3,29.99,SSE,157,0.0,2.0,83,0.47,,,0.47,WUHU21636XXSP,2015-04-24 12:58:00,
2015-04-24 09:03:00,52.3,47.3,29.99,SSE,157,0.0,0.0,83,0.04,,,0.49,WUHU21636XXSP,2015-04-24 13:03:00,
2015-04-24 09:08:00,52.3,47.3,29.99,SSE,157,0.0,0.0,83,0.04,,,0.49,WUHU21636XXSP,2015-04-24 13:08:00,
2015-04-24 09:13:00,52.5,47.5,29.99,SSE,157,0.0,0.0,83,0.04,,,0.49,WUHU21636XXSP,2015-04-24 13:13:00,
2015-04-24 09:18:00,52.7,47.7,29.98,SSE,157,0.0,0.0,83,0.04,,,0.49,WUHU21636XXSP,2015-04-24 13:18:00,
2015-04-24 09:23:00,52.7,47.7,29.98,SSE,157,3.0,3.0,83,0.04,,,0.49,WUHU21636XXSP,2015-04-24 13:23:00,
2015-04-24 09:28:00,52.9,47.8,29.98,SSE,157,1.0,3.0,83,0.00,,,0.49,WUHU21636XXSP,2015-04-24 13:28:00,
2015-04-24 09:33:00,53.1,48.0,29.98,SSE,157,0.0,1.0,83,0.00,,,0.49,WUHU21636XXSP,2015-04-24 13:33:00,
2015-04-24 09:38:00,53.2,48.2,29.98,SSE,157,0.0,1.0,83,0.00,,,0.49,WUHU21636XXSP,2015-04-24 13:38:00,
2015-04-24 09:43:00,53.4,48.4,29.98,SSE,157,0.0,0.0,83,0.00,,,0.49,WUHU21636XXSP,2015-04-24 13:43:00,
2015-04-24 09:48:00,53.4,48.4,29.98,NE,45,0.0,0.0,82,0.00,,,0.49,WUHU21636XXSP,2015-04-24 13:48:00,
2015-04-24 09:53:00,53.8,48.4,29.98,NE,45,0.0,0.0,82,0.00,,,0.49,WUHU21636XXSP,2015-04-24 13:53:00,
2015-04-24 09:58:00,53.8,48.4,29.98,NE,45,0.0,0.0,82,0.00,,,0.49,WUHU21636XXSP,2015-04-24 13:58:00,
2015-04-24 10:03:00,53.8,48.4,29.98,NE,45,0.0,0.0,82,0.00,,,0.49,WUHU21636XXSP,2015-04-24 14:03:00,
2015-04-24 10:08:00,53.8,48.4,29.98,NE,45,0.0,0.0,82,0.00,,,0.49,WUHU21636XXSP,2015-04-24 14:08:00,
2015-04-24 10:13:00,53.8,48.4,29.98,NE,45,0.0,0.0,82,0.00,,,0.49,WUHU21636XXSP,2015-04-24 14:13:00,
2015-04-24 10:18:00,53.8,48.4,29.98,NE,45,0.0,0.0,82,0.00,,,0.49,WUHU21636XXSP,2015-04-24 14:18:00,
2015-04-24 10:23:00,53.8,48.4,29.98,NE,45,0.0,0.0,82,0.00,,,0.49,WUHU21636XXSP,2015-04-24 14:23:00,
2015-04-24 10:28:00,53.8,48.4,29.98,NE,45,0.0,0.0,82,0.00,,,0.49,WUHU21636XXSP,2015-04-24 14:28:00,
2015-04-24 10:33:00,53.8,48.4,29.98,NE,45,0.0,0.0,82,0.00,,,0.49,WUHU21636XXSP,2015-04-24 14:33:00,
2015-04-24 10:38:00,53.8,48.4,29.98,NE,45,0.0,0.0,82,0.00,,,0.49,WUHU21636XXSP,2015-04-24 14:38:00,
2015-04-24 10:43:00,53.8,48.4,29.98,NE,45,0.0,0.0,82,0.00,,,0.49,WUHU21636XXSP,2015-04-24 14:43:00,
2015-04-24 10:48:00,53.8,48.4,29.98,NE,45,0.0,0.0,82,0.00,,,0.49,WUHU21636XXSP,2015-04-24 14:48:00,
2015-04-24 10:53:00,53.8,48.4,29.98,NE,45,0.0,0.0,82,0.00,,,0.49,WUHU21636XXSP,2015-04-24 14:53:00,
2015-04-24 10:58:00,53.8,48.4,29.98,NE,45,0.0,0.0,82,0.00,,,0.49,WUHU21636XXSP,2015-04-24 14:58:00,
2015-04-24 11:03:00,53.8,48.4,29.98,NE,45,0.0,0.0,82,0.00,,,0.49,WUHU21636XXSP,2015-04-24 15:03:00,
2015-04-24 11:08:00,53.8,48.4,29.98,NE,45,0.0,0.0,82,0.00,,,0.49,WUHU21636XXSP,2015-04-24 15:08:00,
2015-04-24 11:13:00,53.8,48.4,29.98,NE,45,0.0,0.0,82,0.00,,,0.49,WUHU21636XXSP,2015-04-24 15:13:00,
2015-04-24 11:18:00,53.8,48.4,29.98,NE,45,0.0,0.0,82,0.00,,,0.49,WUHU21636XXSP,2015-04-24 15:18:00,
2015-04-24 11:23:00,53.8,48.4,29.98,NE,45,0.0,0.0,82,0.00,,,0.49,WUHU21636XXSP,2015-04-24 15:23:00,
2015-04-24 11:28:00,53.8,48.4,29.98,NE,45,0.0,0.0,82,0.00,,,0.49,WUHU21636XXSP,2015-04-24 15:28:00,
2015-04-24 11:33:00,53.8,48.4,29.98,NE,45,0.0,0.0,82,0.00,,,0.49,WUHU21636XXSP,2015-04-24 15:33:00,
2015-04-24 11:38:00,53.8,48.4,29.98,NE,45,0.0,0.0,82,0.00,,,0.49,WUHU21636XXSP,2015-04-24 15:38:00,
2015-04-24 11:43:00,53.8,48.4,29.98,NE,45,0.0,0.0,82,0.00,,,0.49,WUHU21636XXSP,2015-04-24 15:43:00,
2015-04-24 11:48:00,53.8,48.4,29.98,NE,45,0.0,0.0,82,0.00,,,0.49,WUHU21636XXSP,2015-04-24 15:48:00,
2015-04-24 11:53:00,53.8,48.4,29.98,NE,45,0.0,0.0,82,0.00,,,0.49,WUHU21636XXSP,2015-04-24 15:53:00,
2015-04-24 11:58:00,53.8,48.4,29.98,NE,45,0.0,0.0,82,0.00,,,0.49,WUHU21636XXSP,2015-04-24 15:58:00,
2015-04-24 12:03:00,53.8,48.4,29.98,NE,45,0.0,0.0,82,0.00,,,0.49,WUHU21636XXSP,2015-04-24 16:03:00,
2015-04-24 12:08:00,53.8,48.4,29.98,NE,45,0.0,0.0,82,0.00,,,0.49,WUHU21636XXSP,2015-04-24 16:08:00,
2015-04-24 12:13:00,53.8,48.4,29.98,NE,45,0.0,0.0,82,0.00,,,0.49,WUHU21636XXSP,2015-04-24 16:13:00,
2015-04-24 12:18:00,53.8,48.4,29.98,NE,45,0.0,0.0,82,0.00,,,0.49,WUHU21636XXSP,2015-04-24 16:18:00,
2015-04-24 12:23:00,53.8,48.4,29.98,NE,45,0.0,0.0,82,0.00,,,0.49,WUHU21636XXSP,2015-04-24 16:23:00,
2015-04-24 12:28:00,53.8,48.4,29.98,NE,45,0.0,0.0,82,0.00,,,0.49,WUHU21636XXSP,2015-04-24 16:28:00,
2015-04-24 12:33:00,53.8,48.4,29.98,NE,45,0.0,0.0,82,0.00,,,0.49,WUHU21636XXSP,2015-04-24 16:33:00,
2015-04-24 12:38:00,53.8,48.4,29.98,NE,45,0.0,0.0,82,0.00,,,0.49,WUHU21636XXSP,2015-04-24 16:38:00,
2015-04-24 12:43:00,53.8,48.4,29.98,NE,45,0.0,0.0,82,0.00,,,0.49,WUHU21636XXSP,2015-04-24 16:43:00,
2015-04-24 12:48:00,53.8,48.4,29.98,NE,45,0.0,0.0,82,0.00,,,0.49,WUHU21636XXSP,2015-04-24 16:48:00,
2015-04-24 12:53:00,53.8,48.4,29.98,NE,45,0.0,0.0,82,0.00,,,0.49,WUHU21636XXSP,2015-04-24 16:53:00,
2015-04-24 12:58:00,53.8,48.4,29.98,NE,45,0.0,0.0,82,0.00,,,0.49,WUHU21636XXSP,2015-04-24 16:58:00,
2015-04-24 13:03:00,53.8,48.4,29.98,NE,45,0.0,0.0,82,0.00,,,0.49,WUHU21636XXSP,2015-04-24 17:03:00,
2015-04-24 13:08:00,53.8,48.4,29.98,NE,45,0.0,0.0,82,0.00,,,0.49,WUHU21636XXSP,2015-04-24 17:08:00,
2015-04-24 13:13:00,53.8,48.4,29.98,NE,45,0.0,0.0,82,0.00,,,0.49,WUHU21636XXSP,2015-04-24 17:13:00,
2015-04-24 13:18:00,53.8,48.4,29.98,NE,45,0.0,0.0,82,0.00,,,0.49,WUHU21636XXSP,2015-04-24 17:18:00,
2015-04-24 13:23:00,53.8,48.4,29.98,NE,45,0.0,0.0,82,0.00,,,0.49,WUHU21636XXSP,2015-04-24 17:23:00,
2015-04-24 13:28:00,53.8,48.4,29.98,NE,45,0.0,0.0,82,0.00,,,0.49,WUHU21636XXSP,2015-04-24 17:28:00,
2015-04-24 13:33:00,53.8,48.4,29.98,NE,45,0.0,0.0,82,0.00,,,0.49,WUHU21636XXSP,2015-04-24 17:33:00,
2015-04-24 13:38:00,53.8,48.4,29.98,NE,45,0.0,0.0,82,0.00,,,0.49,WUHU21636XXSP,2015-04-24 17:38:00,
2015-04-24 13:43:00,53.8,48.4,29.98,NE,45,0.0,0.0,82,0.00,,,0.49,WUHU21636XXSP,2015-04-24 17:43:00,
2015-04-24 13:48:00,53.8,48.4,29.98,NE,45,0.0,0.0,82,0.00,,,0.49,WUHU21636XXSP,2015-04-24 17:48:00,
2015-04-24 13:53:00,53.8,48.4,29.98,NE,45,0.0,0.0,82,0.00,,,0.49,WUHU21636XXSP,2015-04-24 17:53:00,
2015-04-24 13:58:00,53.8,48.4,29.98,NE,45,0.0,0.0,82,0.00,,,0.49,WUHU21636XXSP,2015-04-24 17:58:00,
2015-04-24 14:03:00,53.8,48.4,29.98,NE,45,0.0,0.0,82,0.00,,,0.49,WUHU21636XXSP,2015-04-24 18:03:00,
2015-04-24 14:08:00,53.8,48.4,29.98,NE,45,0.0,0.0,82,0.00,,,0.49,WUHU21636XXSP,2015-04-24 18:08:00,
2015-04-24 14:13:00,53.8,48.4,29.98,NE,45,0.0,0.0,82,0.00,,,0.49,WUHU21636XXSP,2015-04-24 18:13:00,
2015-04-24 14:18:00,53.8,48.4,29.98,NE,45,0.0,0.0,82,0.00,,,0.49,WUHU21636XXSP,2015-04-24 18:18:00,
2015-04-24 14:23:00,53.8,48.4,29.98,NE,45,0.0,0.0,82,0.00,,,0.49,WUHU21636XXSP,2015-04-24 18:23:00,
2015-04-24 14:28:00,53.8,48.4,29.98,NE,45,0.0,0.0,82,0.00,,,0.49,WUHU21636XXSP,2015-04-24 18:28:00,
2015-04-24 14:33:00,53.8,48.4,29.98,NE,45,0.0,0.0,82,0.00,,,0.49,WUHU21636XXSP,2015-04-24 18:33:00,
2015-04-24 14:38:00,53.8,48.4,29.98,NE,45,0.0,0.0,82,0.00,,,0.49,WUHU21636XXSP,2015-04-24 18:38:00,
2015-04-24 14:43:00,53.8,48.4,29.98,NE,45,0.0,0.0,82,0.00,,,0.49,WUHU21636XXSP,2015-04-24 18:43:00,
2015-04-24 14:48:00,53.8,48.4,29.98,NE,45,0.0,0.0,82,0.00,,,0.49,WUHU21636XXSP,2015-04-24 18:48:00,
2015-04-24 14:53:00,53.8,48.4,29.98,NE,45,0.0,0.0,82,0.00,,,0.49,WUHU21636XXSP,2015-04-24 18:53:00,
2015-04-24 14:58:00,53.8,48.4,29.98,NE,45,0.0,0.0,82,0.00,,,0.49,WUHU21636XXSP,2015-04-24 18:58:00,
2015-04-24 15:03:00,53.8,48.4,29.98,NE,45,0.0,0.0,82,0.00,,,0.49,WUHU21636XXSP,2015-04-24 19:03:00,
2015-04-24 15:08:00,53.8,48.4,29.98,NE,45,0.0,0.0,82,0.00,,,0.49,WUHU21636XXSP,2015-04-24 19:08:00,
2015-04-24 15:13:00,53.8,48.4,29.98,NE,45,0.0,0.0,82,0.00,,,0.49,WUHU21636XXSP,2015-04-24 19:13:00,
2015-04-24 15:18:00,53.8,48.4,29.98,NE,45,0.0,0.0,82,0.00,,,0.49,WUHU21636XXSP,2015-04-24 19:18:00,
2015-04-24 15:23:00,53.8,48.4,29.98,NE,45,0.0,0.0,82,0.00,,,0.49,WUHU21636XXSP,2015-04-24 19:23:00,
2015-04-24 15:28:00,53.8,48.4,29.98,NE,45,0.0,0.0,82,0.00,,,0.49,WUHU21636XXSP,2015-04-24 19:28:00,
2015-04-24 15:33:00,53.8,48.4,29.98,NE,45,0.0,0.0,82,0.00,,,0.49,WUHU21636XXSP,2015-04-24 19:33:00,
2015-04-24 15:38:00,53.8,48.4,29.98,NE,45,0.0,0.0,82,0.00,,,0.49,WUHU21636XXSP,2015-04-24 19:38:00,
2015-04-24 15:43:00,53.8,48.4,29.98,NE,45,0.0,0.0,82,0.00,,,0.49,WUHU21636XXSP,2015-04-24 19:43:00,
2015-04-24 15:48:00,53.8,48.4,29.98,NE,45,0.0,0.0,82,0.00,,,0.49,WUHU21636XXSP,2015-04-24 19:48:00,
2015-04-24 15:53:00,53.8,48.4,29.98,NE,45,0.0,0.0,82,0.00,,,0.49,WUHU21636XXSP,2015-04-24 19:53:00,
2015-04-24 15:58:00,53.8,48.4,29.98,NE,45,0.0,0.0,82,0.00,,,0.49,WUHU21636XXSP,2015-04-24 19:58:00,
2015-04-24 16:03:00,53.8,48.4,29.98,NE,45,0.0,0.0,82,0.00,,,0.49,WUHU21636XXSP,2015-04-24 20:03:00,
2015-04-24 16:08:00,53.8,48.4,29.98,NE,45,0.0,0.0,82,0.00,,,0.49,WUHU21636XXSP,2015-04-24 20:08:00,
2015-04-24 16:13:00,53.8,48.4,29.98,NE,45,0.0,0.0,82,0.00,,,0.49,WUHU21636XXSP,2015-04-24 20:13:00,
2015-04-24 16:18:00,53.8,48.4,29.98,NE,45,0.0,0.0,82,0.00,,,0.49,WUHU21636XXSP,2015-04-24 20:18:00,
2015-04-24 16:23:00,53.8,48.4,29.98,NE,45,0.0,0.0,82,0.00,,,0.49,WUHU21636XXSP,2015-04-24 20:23:00,
2015-04-24 16:28:00,53.8,48.4,29.98,NE,45,0.0,0.0,82,0.00,,,0.49,WUHU21636XXSP,2015-04-24 20:28:00,
2015-04-24 16:33:00,53.8,48.4,29.98,NE,45,0.0,0.0,82,0.00,,,0.49,WUHU21636XXSP,2015-04-24 20:33:00,
2015-04-24 16:38:00,53.8,48.4,29.98,NE,45,0.0,0.0,82,0.00,,,0.49,WUHU21636XXSP,2015-04-24 20:38:00,
2015-04-24 16:43:00,53.8,48.4,29.98,NE,45,0.0,0.0,82,0.00,,,0.49,WUHU21636XXSP,2015-04-24 20:43:00,
2015-04-24 16:48:00,53.8,48.4,29.98,NE,45,0.0,0.0,82,0.00,,,0.49,WUHU21636XXSP,2015-04-24 20:48:00,
2015-04-24 16:53:00,53.8,48.4,29.98,NE,45,0.0,0.0,82,0.00,,,0.49,WUHU21636XXSP,2015-04-24 20:53:00,
2015-04-24 16:58:00,53.8,48.4,29.98,NE,45,0.0,0.0,82,0.00,,,0.49,WUHU21636XXSP,2015-04-24 20:58:00,
2015-04-24 17:03:00,53.8,48.4,29.98,NE,45,0.0,0.0,82,0.00,,,0.49,WUHU21636XXSP,2015-04-24 21:03:00,
2015-04-24 17:08:00,53.8,48.4,29.98,NE,45,0.0,0.0,82,0.00,,,0.49,WUHU21636XXSP,2015-04-24 21:08:00,
2015-04-24 17:13:00,53.8,48.4,29.98,NE,45,0.0,0.0,82,0.00,,,0.49,WUHU21636XXSP,2015-04-24 21:13:00,
2015-04-24 17:18:00,53.8,48.4,29.98,NE,45,0.0,0.0,82,0.00,,,0.49,WUHU21636XXSP,2015-04-24 21:18:00,
2015-04-24 17:23:00,53.8,48.4,29.98,NE,45,0.0,0.0,82,0.00,,,0.49,WUHU21636XXSP,2015-04-24 21:23:00,
2015-04-24 17:28:00,53.8,48.4,29.98,NE,45,0.0,0.0,82,0.00,,,0.49,WUHU21636XXSP,2015-04-24 21:28:00,
2015-04-24 17:33:00,53.8,48.4,29.98,NE,45,0.0,0.0,82,0.00,,,0.49,WUHU21636XXSP,2015-04-24 21:33:00,
2015-04-24 17:38:00,53.8,48.4,29.98,NE,45,0.0,0.0,82,0.00,,,0.49,WUHU21636XXSP,2015-04-24 21:38:00,
2015-04-24 17:43:00,53.8,44.0,29.98,South,180,3.0,3.0,69,0.00,,,0.49,WUHU21636XXSP,2015-04-24 21:43:00,
2015-04-24 17:48:00,64.9,54.5,29.80,WSW,247,4.0,4.0,69,0.00,,,0.49,WUHU21636XXSP,2015-04-24 21:48:00,
2015-04-24 17:53:00,65.1,55.0,29.79,SE,135,5.0,5.0,70,0.00,,,0.49,WUHU21636XXSP,2015-04-24 21:53:00,
2015-04-24 17:58:00,64.9,54.9,29.78,SSE,157,10.0,15.0,70,0.00,,,0.49,WUHU21636XXSP,2015-04-24 21:58:00,
2015-04-24 18:03:00,64.8,54.7,29.78,SE,135,4.0,15.0,70,0.00,,,0.49,WUHU21636XXSP,2015-04-24 22:03:00,
2015-04-24 18:08:00,64.8,54.7,29.79,SW,225,6.0,11.0,70,0.00,,,0.49,WUHU21636XXSP,2015-04-24 22:08:00,
2015-04-24 18:13:00,64.8,54.7,29.80,SW,225,3.0,8.0,70,0.00,,,0.49,WUHU21636XXSP,2015-04-24 22:13:00,
2015-04-24 18:18:00,64.6,54.5,29.79,SE,135,4.0,8.0,70,0.00,,,0.49,WUHU21636XXSP,2015-04-24 22:18:00,
2015-04-24 18:23:00,64.6,54.5,29.79,SE,135,4.0,8.0,70,0.00,,,0.49,WUHU21636XXSP,2015-04-24 22:23:00,
2015-04-24 18:28:00,64.6,54.5,29.79,SE,135,4.0,4.0,70,0.00,,,0.49,WUHU21636XXSP,2015-04-24 22:28:00,
2015-04-24 18:33:00,64.6,54.5,29.79,SE,135,4.0,4.0,70,0.00,,,0.49,WUHU21636XXSP,2015-04-24 22:33:00,
2015-04-24 18:38:00,64.6,54.5,29.79,SE,135,4.0,4.0,70,0.00,,,0.49,WUHU21636XXSP,2015-04-24 22:38:00,
2015-04-24 18:43:00,64.6,54.5,29.79,SE,135,4.0,4.0,70,0.00,,,0.49,WUHU21636XXSP,2015-04-24 22:43:00,
2015-04-24 18:48:00,64.6,54.5,29.79,SE,135,4.0,4.0,70,0.00,,,0.49,WUHU21636XXSP,2015-04-24 22:48:00,
2015-04-24 18:53:00,64.6,54.5,29.79,SE,135,4.0,4.0,70,0.00,,,0.49,WUHU21636XXSP,2015-04-24 22:53:00,
2015-04-24 18:58:00,64.6,54.5,29.79,SE,135,4.0,4.0,70,0.00,,,0.49,WUHU21636XXSP,2015-04-24 22:58:00,
2015-04-24 19:03:00,64.6,54.5,29.79,SE,135,4.0,4.0,70,0.00,,,0.49,WUHU21636XXSP,2015-04-24 23:03:00,
2015-04-24 19:08:00,64.6,54.5,29.79,SE,135,4.0,4.0,70,0.00,,,0.49,WUHU21636XXSP,2015-04-24 23:08:00,
2015-04-24 19:13:00,64.6,54.5,29.79,SE,135,4.0,4.0,70,0.00,,,0.49,WUHU21636XXSP,2015-04-24 23:13:00,
2015-04-24 19:18:00,64.6,54.5,29.79,SE,135,4.0,4.0,70,0.00,,,0.49,WUHU21636XXSP,2015-04-24 23:18:00,
2015-04-24 19:23:00,64.6,54.5,29.79,SE,135,4.0,4.0,70,0.00,,,0.49,WUHU21636XXSP,2015-04-24 23:23:00,
2015-04-24 19:28:00,64.6,54.5,29.79,SE,135,4.0,4.0,70,0.00,,,0.49,WUHU21636XXSP,2015-04-24 23:28:00,
2015-04-24 19:33:00,64.6,54.5,29.79,SE,135,4.0,4.0,70,0.00,,,0.49,WUHU21636XXSP,2015-04-24 23:33:00,
2015-04-24 19:38:00,64.6,54.5,29.79,SE,135,4.0,4.0,70,0.00,,,0.49,WUHU21636XXSP,2015-04-24 23:38:00,
2015-04-24 19:43:00,64.6,54.5,29.79,SE,135,4.0,4.0,70,0.00,,,0.49,WUHU21636XXSP,2015-04-24 23:43:00,
2015-04-24 19:48:00,64.6,54.5,29.79,SE,135,4.0,4.0,70,0.00,,,0.49,WUHU21636XXSP,2015-04-24 23:48:00,
2015-04-24 19:53:00,64.6,54.5,29.79,SE,135,4.0,4.0,70,0.00,,,0.49,WUHU21636XXSP,2015-04-24 23:53:00,
2015-04-24 19:58:00,64.6,54.5,29.79,SE,135,4.0,4.0,70,0.00,,,0.49,WUHU21636XXSP,2015-04-24 23:58:00,
2015-04-24 20:03:00,64.6,54.5,29.79,SE,135,4.0,4.0,70,0.00,,,0.49,WUHU21636XXSP,2015-04-25 00:03:00,
2015-04-24 20:08:00,64.6,54.5,29.79,SE,135,4.0,4.0,70,0.00,,,0.49,WUHU21636XXSP,2015-04-25 00:08:00,
2015-04-24 20:13:00,64.6,54.5,29.79,SE,135,4.0,4.0,70,0.00,,,0.49,WUHU21636XXSP,2015-04-25 00:13:00,
2015-04-24 20:18:00,64.6,54.5,29.79,SE,135,4.0,4.0,70,0.00,,,0.49,WUHU21636XXSP,2015-04-25 00:18:00,
2015-04-24 20:23:00,64.6,54.5,29.79,SE,135,4.0,4.0,70,0.00,,,0.49,WUHU21636XXSP,2015-04-25 00:23:00,
2015-04-24 20:28:00,64.6,54.5,29.79,SE,135,4.0,4.0,70,0.00,,,0.49,WUHU21636XXSP,2015-04-25 00:28:00,